Regional Weather Roundup
Issued by NWS Grand Forks, ND

Home | Current Version | Previous Version | Graphics & Text | Print | Product List | Glossary On
Versions: 1 2 3 4 5 6 7 8 9 10 11 12 13 14 15 16 17 18 19 20 21 22 23 24 25 26 27 28 29 30 31 32 33 34 35 36 37 38 39 40 41 42 43 44 45 46 47 48 49 50
000
ASUS43 KFGF 282331
RWRFGF
PRAIRIE TO PINES  WEATHER ROUNDUP
NATIONAL WEATHER SERVICE EASTERN NORTH DAKOTA/GRAND FORKS ND
600 PM CDT WED SEP 28 2016

 **SATELLITE DATA USED TO AUGMENT SKY COVER AT AUTOMATED STATIONS**
 *****  WEATHER ACROSS EASTERN NORTH DAKOTA  *****

CITY           SKY/WX    TMP DP  RH WIND       PRES   REMARKS
GRAND FORKS    MOSUNNY   62  46  55 NE6       30.35R
GRAND FRKS AFB MOSUNNY   59  46  62 E5        30.36R
GRAND FRKS NWS   N/A     55 N/A N/A NE3         N/A
DEVILS LAKE    SUNNY     59  46  63 CALM      30.35S
FARGO          PTSUNNY   65  46  50 NE8       30.33R
WAHPETON ARPT  PTCLDY    63  45  51 E6        30.33R
$$

 ***** WEATHER ACROSS CENTRAL AND WESTERN NORTH DAKOTA  *****

CITY           SKY/WX    TMP DP  RH WIND       PRES   REMARKS
BISMARCK       SUNNY     67  44  43 E7        30.30R
MINOT          SUNNY     68  37  32 E9        30.30R
JAMESTOWN      SUNNY     61  46  57 VRB6      30.33R HAZE
MINOT AFB      SUNNY     68  38  32 E12       30.29R
GARRISON         N/A     69  32  25 SE8       30.30R
WILLISTON      SUNNY     76  51  41 SE8       30.24R
DICKINSON      SUNNY     71  44  37 SE14      30.26R
HETTINGER      SUNNY     75  44  33 E14       30.28R
$$

 *****  OTHER AIRPORT OBSERVATIONS IN OUR AREA  *****

CITY           SKY/WX    TMP DP  RH WIND       PRES   REMARKS
WALHALLA       FAIR      59  55  88 E5        30.36R
GRAFTON AIRPOR FAIR      59  48  67 SE3       30.38R
VALLEY CITY AR FAIR      59  46  63 E6        30.36R
CANDO          FAIR      59  48  67 E7        30.37R
CAVALIER APRT  FAIR      61  46  59 E5        30.36R
GWINNER        FAIR      61  46  59 NE7       30.34R
SHEYENNE NWR     N/A     62  47  56 E3        29.95S
ROLLA          FAIR      61  45  55 E7        30.35S
 ***** THE ABOVE OBSERVATIONS ARE NON NWS ARE NOT QUALITY
       CONTROLLED AND MAY MIS-REPORT RAIN FOR SNOW...
$$

  *****  WEATHER ACROSS NORTHERN MINNESOTA  *****

CITY           SKY/WX    TMP DP  RH WIND       PRES   REMARKS
FLAG ISLAND    CLOUDY    57  50  77 N6        30.36R
WARROAD        PTCLDY    57  48  72 CALM      30.37R
ROSEAU         CLOUDY    57  50  77 CALM      30.37S
HALLOCK        SUNNY     59  48  67 CALM      30.36R HAZE
THF RVR FALLS  CLOUDY    58  49  72 NE7       30.37
BAUDETTE       NOT AVBL
WASKISH        CLOUDY    57  50  77 CALM      30.36R
CROOKSTON      MOSUNNY   61  48  63 N3        30.36R
STEPHEN NDAWN    N/A     61  46  59 N1          N/A
GREENBUSH NDAW   N/A     57  48  72 N3          N/A
$$
  *****  WEATHER ACROSS CENTRAL AND WEST MINNESOTA  *****

CITY           SKY/WX    TMP DP  RH WIND       PRES   REMARKS
FOSSTON        CLOUDY    55  48  76 NE3       30.37R
BEMIDJI        CLOUDY    56  48  74 N3        30.36R
PARK RAPIDS    NOT AVBL
ELBOW LAKE     FAIR      59  47  64 E3        30.33R
WADENA         PTSUNNY   57  46  67 NE8       30.34R
DETROIT LAKES  PTSUNNY   59  46  63 E6        30.35R
MOORHEAD       SUNNY     63  46  55 N7        30.34R
FERGUS FALLS   SUNNY     61  46  59 E5        30.34S
MORRIS MN      SUNNY     63  46  55 NE5       30.31R
STAPLES        CLOUDY    55  46  71 CALM      30.34R
$$
  *****  WEATHER ELSEWHERE ACROSS MINNESOTA  *****

CITY           SKY/WX    TMP DP  RH WIND       PRES   REMARKS
DULUTH         CLOUDY    55  49  80 E5        30.33S
INTRNTL FALLS  CLOUDY    57  47  69 N7        30.35R
ELY            CLOUDY    55  48  76 CALM      30.34R
CLOQUET        CLOUDY    55  46  71 E5        30.33R
WHEATON        SUNNY     64  48  55 NE7       30.34R
BRAINERD       NOT AVBL
HIBBING        CLOUDY    56  48  74 CALM      30.33R
ALEXANDRIA     PTSUNNY   61  46  57 NE7       30.33R
SAINT CLOUD    CLOUDY    59  48  67 N9        30.31R
MINNEAPOLIS    CLOUDY    60  48  64 N16       30.28R
$$

  *****  WEATHER ACROSS SOUTH DAKOTA  *****

CITY           SKY/WX    TMP DP  RH WIND       PRES   REMARKS
SIOUX FALLS    MOSUNNY   62  47  57 E12       30.29R
BROOKINGS      SUNNY     59  46  62 NE8       30.31R
WATERTOWN      SUNNY     59  46  62 NE8       30.32R
HURON          SUNNY     68  43  40 NE8       30.28R
SISSETON         N/A     63  46  54 NE6       30.32R
ABERDEEN       SUNNY     65  42  43 NE7       30.31R
MITCHELL       SUNNY     67  43  41 NE9       30.29R
PIERRE         SUNNY     69  46  43 E9        30.27R
MOBRIDGE       SUNNY     68  46  45 E8        30.28R
RAPID CITY     SUNNY     76  45  33 SE6       30.27R
$$

  *****  SOME WEATHER IN NEARBY STATES *****

CITY           SKY/WX    TMP DP  RH WIND       PRES   REMARKS
GLASGOW MT     SUNNY     72  48  42 SE9       30.19F
GREAT FALLS MT SUNNY     66  45  46 NE5       30.15F
CHEYENNE WY    SUNNY     75  33  21 SE6G17    30.35S
SCOTTSBLUFF NE SUNNY     80  39  23 E10       30.26S
OMAHA NE       MOSUNNY   64  46  52 N13       30.24R
DES MOINES IA  CLOUDY    61  49  64 N12G20    30.20R
DAVENPORT IA   LGT RAIN  56  52  86 N7        30.12R
CHICAGO IL     CLOUDY    59  51  75 N20G26    30.03R THUNDER
EAU CLAIRE WI  MOCLDY    61  52  72 N8        30.22R
LA CROSSE WI   PTCLDY    64  50  60 N8        30.18R
$$

  *****  SOME NATIONAL WEATHER *****

CITY           SKY/WX    TMP DP  RH WIND       PRES   REMARKS
LA GUARDIA NY  CLOUDY    64  56  75 NE22G29   30.18R
RALEIGH NC     CLOUDY    72  66  81 S7        29.95R
ATLANTA GA     CLEAR     84  50  30 SW8       29.91S
NEW ORLEANS LA PTCLDY    88  66  48 NW3       29.97R HX  90
OKLAHOMA CITY  MOSUNNY   83  48  29 N14       30.09R
ALBUQUERQUE NM CLOUDY    80  43  26 W8        30.23F
SALT LAKE CITY MOSUNNY   80  50  34 NW10      30.10F
LOS ANGELES CA MOSUNNY   82  46  28 W13       29.89F
BOISE ID       SUNNY     92  31  11 SE16G24   29.92F
SEATTLE WA     MOSUNNY   67  48  50 VRB5      30.07F
$$

*** WEATHER ACROSS MANITOBA...SASKATCHEWAN AND ONTARIO ***
                ***ONTARIO***

CITY           SKY/WX    TMP DP  RH WIND       PRES   REMARKS
GERALDTON      CLOUDY    54  50  87 N6        30.33R
THUNDER BAY    MOCLDY    59  50  72 N5        30.31R
SIOUX LOOKOUT  CLOUDY    54  46  76 N3        30.37R
TORONTO        MOCLDY    66  54  63 E17G25    30.09R
BIG TROUT LK   CLOUDY    54  48  82 NW6       30.31R
PICKLE LAKE    CLOUDY    54  46  76 W5        30.35R
DRYDEN         CLOUDY    55  48  76 NE3       30.36R
KENORA         CLOUDY    55  48  76 N3        30.37R
$$
                *** MANITOBA***

CITY           SKY/WX    TMP DP  RH WIND       PRES   REMARKS
BRANDON        SUNNY     66  41  39 E7        30.33R
DAUPHIN        SUNNY     61  50  67 NE7       30.34R
ISLAND LAKE    PTCLDY    59  48  67 W3        30.32R
PILOT MOUND      N/A     63  45  51 NE5         N/A
THE PAS        MOSUNNY   61  34  36 NW7       30.35R
THOMPSON       MOCLDY    59  32  36 W9        30.30R
WINNIPEG       MOSUNNY   61  46  59 CALM      30.36
LYNN LAKE      SUNNY     55  30  38 W12G18    30.29R
CHURCHILL      PTCLDY    55  39  54 W12       30.08R
GILLAM         PTCLDY    57  41  54 W13G20    30.24R
$$
                ***SASKATCHEWAN***

CITY           SKY/WX    TMP DP  RH WIND       PRES   REMARKS
ESTEVAN        MOSUNNY   70  41  35 E15       30.27R
KINDERSLEY     LGT RAIN  46  41  81 E9        30.32F
LLOYDMINSTER   CLOUDY    55  32  41 SE9       30.31F
PRINCE ALBERT  PTSUNNY   59  34  38 SE2       30.33F
REGINA         MOSUNNY   66  45  45 E14       30.26S
YORKTON        PTSUNNY   66  46  48 E6        30.30S
N. BATTLEFORD  CLOUDY    57  34  41 SE7       30.35S
LA RONGE       MOSUNNY   59  30  33 CALM      30.34F
SASKATOON      CLOUDY    55  37  50 VRB2      30.37R
SWIFT CURRENT  PTSUNNY   59  39  47 NE16      30.26F
$$
NOTE: THESE ARE AUTOMATED STATIONS WITH LIMITED QUALITY CONTROL
      "FAIR" INDICATES FEW OR NO CLOUDS BELOW 12,000 FEET WITH NO
      SIGNIFICANT WEATHER AND/OR OBSTRUCTIONS TO VISIBILITY.
      SKY/WX - SKY CONDITION AND SIGNIFICANT WEATHER.
      TMP - AIR TEMPERATURE.    DP   - DEWPOINT TEMPERATURE.
      RH  - RELATIVE HUMIDITY.  PRES - PRESSURE.
      HX  - HEAT INDEX.         WCI  - WIND CHILL INDEX.
$



USA.gov is the U.S. government's official web portal to all federal, state and local government web resources and services.